Weather History for Alexandria Esle, LA

Change the Weather History Date:

Friday, November 15, 2013

  Actual Average Record
Temperature  
Mean Temperature 59 °F -  
Max Temperature 73 °F 66 °F 82 °F (1973)
Min Temperature 45 °F 42 °F 24 °F (1969)
Degree Days  
Heating Degree Days 6    
Growing Degree Days 9 (Base 50)    
Moisture  
Dew Point 52 °F    
Average Humidity 90    
Maximum Humidity 100    
Minimum Humidity 48    
Precipitation  
Precipitation 0.00 in - - ()
Sea Level Pressure  
Sea Level Pressure 30.03 in    
Wind  
Wind Speed 1 mph (ESE)    
Max Wind Speed 8 mph    
Max Gust Speed -    
Visibility 6 miles    
Events Fog , Rain    
Averages and records for this station are not official NWS values.
T = Trace of Precipitation, MM = Missing Value Source: NWS Daily Summary

Daily Weather History Graph

Daily Weather History Graph

Search for Another Location

Airport:

Trip Planner

Search our weather history database for the weather conditions in past years. The results will help you decide how hot, cold, wet, or windy it might be!

Date:

Astronomy

Nov. 15, 2013 Rise Set
Actual Time 6:36 AM CST 5:10 PM CST
Civil Twilight 6:11 AM CST 5:36 PM CST
Nautical Twilight 5:41 AM CST 6:05 PM CST
Astronomical Twilight 5:13 AM CST 6:34 PM CST
Moon 4:02 PM CST (11/15) 4:40 AM CST (11/15)
Length of Visible Light 11h 24m
Length of Day
10h 33m
Waxing Gibbous, 96% of the Moon is Illuminated
Nov 15
Waxing Gibbous
Nov 17
Full
Nov 25
Last Quarter
Dec 2
New
Dec 9
First Quarter

Hourly Weather History & Observations

Time (CST) Temp. Dew Point Humidity Pressure Visibility Wind Dir Wind Speed Gust Speed Precip Events Conditions
12:53 AM 45.0 °F 44.1 °F 97% 30.11 in 9.0 mi Calm Calm - N/A   Partly Cloudy
1:10 AM 46.4 °F 44.6 °F 93% 30.11 in 10.0 mi Calm Calm - N/A   Mostly Cloudy
1:53 AM 46.9 °F 45.0 °F 93% 30.11 in 10.0 mi Calm Calm - N/A   Overcast
2:23 AM 46.4 °F 44.6 °F 93% 30.11 in 8.0 mi Calm Calm - N/A   Scattered Clouds
2:53 AM 45.0 °F 44.1 °F 97% 30.10 in 7.0 mi Calm Calm - N/A   Partly Cloudy
3:53 AM 46.0 °F 45.0 °F 96% 30.09 in 10.0 mi Calm Calm - N/A   Partly Cloudy
4:53 AM 46.0 °F 45.0 °F 96% 30.09 in 8.0 mi Calm Calm - N/A   Scattered Clouds
5:53 AM 48.0 °F 46.0 °F 93% 30.08 in 10.0 mi Calm Calm - 0.00 in Rain Light Rain
6:53 AM 48.9 °F 46.9 °F 93% 30.09 in 10.0 mi Calm Calm - 0.00 in   Overcast
7:53 AM 50.0 °F 48.0 °F 93% 30.09 in 10.0 mi East 3.5 mph - 0.00 in Rain Light Rain
8:53 AM 52.0 °F 48.9 °F 89% 30.11 in 10.0 mi ENE 3.5 mph - 0.00 in   Overcast
9:53 AM 53.1 °F 48.9 °F 86% 30.12 in 10.0 mi Calm Calm - 0.00 in   Overcast
10:53 AM 57.0 °F 50.0 °F 77% 30.10 in 10.0 mi Variable 3.5 mph - N/A   Overcast
11:53 AM 63.0 °F 53.1 °F 70% 30.05 in 10.0 mi ESE 3.5 mph - N/A   Partly Cloudy
12:53 PM 71.1 °F 57.0 °F 61% 30.01 in 10.0 mi East 6.9 mph - N/A   Clear
1:53 PM 73.9 °F 55.0 °F 52% 29.99 in 10.0 mi ESE 6.9 mph - N/A   Clear
2:53 PM 73.9 °F 53.1 °F 48% 29.98 in 10.0 mi SE 4.6 mph - N/A   Clear
3:53 PM 73.9 °F 55.0 °F 52% 29.97 in 10.0 mi SE 4.6 mph - N/A   Clear
4:53 PM 66.0 °F 59.0 °F 78% 29.96 in 10.0 mi Calm Calm - N/A   Clear
5:53 PM 59.0 °F 57.0 °F 93% 29.97 in 10.0 mi Calm Calm - N/A   Clear
6:53 PM 55.9 °F 55.0 °F 97% 29.99 in 3.0 mi Calm Calm - N/A   Clear
6:56 PM 55.4 °F 55.4 °F 100% 29.99 in 1.8 mi Calm Calm - N/A   Clear
7:07 PM 55.4 °F 55.4 °F 100% 29.99 in 3.0 mi Calm Calm - N/A   Clear
7:10 PM 55.4 °F 55.4 °F 100% 29.99 in 1.8 mi Calm Calm - N/A   Clear
7:19 PM 55.4 °F 55.4 °F 100% 29.99 in 0.5 mi Calm Calm - N/A Fog Fog
7:24 PM 55.4 °F 55.4 °F 100% 29.99 in 1.5 mi Calm Calm - N/A   Partly Cloudy
7:26 PM 55.4 °F 55.4 °F 100% 29.99 in 3.0 mi Calm Calm - N/A   Partly Cloudy
7:53 PM 55.0 °F 54.0 °F 96% 29.99 in 4.0 mi Calm Calm - N/A   Clear
8:39 PM 53.6 °F 51.8 °F 94% 30.01 in 1.8 mi Calm Calm - N/A   Clear
8:51 PM 51.8 °F 51.8 °F 100% 30.01 in 0.5 mi Calm Calm - N/A Fog Fog
8:53 PM 52.0 °F 52.0 °F 100% 30.01 in 0.5 mi Calm Calm - N/A Fog Fog
9:53 PM 52.0 °F 51.1 °F 97% 30.01 in 2.0 mi Calm Calm - N/A   Clear
10:11 PM 51.8 °F 51.8 °F 100% 30.01 in 3.0 mi Calm Calm - N/A   Clear
10:39 PM 55.4 °F 55.4 °F 100% 30.01 in 7.0 mi ESE 3.5 mph - N/A   Scattered Clouds
10:53 PM 57.9 °F 57.0 °F 97% 30.01 in 6.0 mi ESE 8.1 mph - N/A   Mostly Cloudy
11:03 PM 60.8 °F 59.0 °F 94% 30.01 in 1.8 mi SE 8.1 mph - N/A   Overcast
11:16 PM 60.8 °F 60.8 °F 100% 30.01 in 0.5 mi SE 6.9 mph - N/A Fog Fog
11:53 PM 61.0 °F 61.0 °F 100% 30.01 in 0.5 mi SSE 4.6 mph - N/A Fog Fog